軌道要素
Epoch 2018 Dec. 28.0 TT = JDT 2458480.5
T 2018 Dec. 12.94132 TT Rudenko
q 1.0553678 (2000.0) P Q
n 0.18118350 Peri. 356.35373 +0.19786695 -0.95925755
a 3.0930738 Node 82.15689 +0.90441402 +0.09931713
e 0.6587964 Incl. 11.74647 +0.37799994 +0.26450152
P 5.44
From 7519 observations 1967 Nov. 24-2019 July 3, mean residual 0".8.
Nongravitational parameters A1 = +0.36, A2 = -0.1461.
|